Location: Banff
(51.1667°N, 115.5667°W)
Time: 11:21:24
(UTC+00:00)

Courier 1B Rocket - Pass Details

Date: 03 December 2020
Orbit: 920 x 1202 km, 28.2° (Epoch: 17 January)

Event Time Altitude Azimuth Distance (km) Brightness Sun altitude
Rises 12:28:40 0° 219° (SW) 4,058 - -27.0°
Exits shadow 12:31:49 - 204° (SSW) 3,425 7.6 -26.5°
Reaches altitude 10° 12:34:17 10° 187° (S) 3,123 7.6 -26.1°
Maximum altitude 12:36:13 11° 173° (S) 3,048 7.7 -25.8°
Drops below altitude 10° 12:38:09 10° 158° (SSE) 3,128 7.9 -25.5°
Sets 12:43:47 0° 126° (SE) 4,077 9.2 -24.6°
